Weather History for Henderson, KY

Change the Weather History Date:

Friday, January 10, 2014

  Actual Average Record
Temperature  
Mean Temperature 40 °F -  
Max Temperature 48 °F 37 °F 64 °F (1975)
Min Temperature 33 °F 21 °F -11 °F (1982)
Degree Days  
Heating Degree Days 24    
Moisture  
Dew Point 38 °F    
Average Humidity 87    
Maximum Humidity 93    
Minimum Humidity 81    
Precipitation  
Precipitation 0.59 in - - ()
Sea Level Pressure  
Sea Level Pressure 29.98 in    
Wind  
Wind Speed 5 mph (SE)    
Max Wind Speed 18 mph    
Max Gust Speed 24 mph    
Visibility 9 miles    
Events      
Averages and records for this station are not official NWS values.
T = Trace of Precipitation, MM = Missing Value Source: NWS Daily Summary

Daily Weather History Graph

Daily Weather History Graph

Search for Another Location

Airport:

Trip Planner

Search our weather history database for the weather conditions in past years. The results will help you decide how hot, cold, wet, or windy it might be!

Date:

Astronomy

Jan. 10, 2014 Rise Set
Actual Time 7:06 AM CST 4:50 PM CST
Civil Twilight 6:37 AM CST 5:19 PM CST
Nautical Twilight 6:04 AM CST 5:52 PM CST
Astronomical Twilight 5:33 AM CST 6:23 PM CST
Moon 12:53 PM CST (1/10) 2:15 AM CST (1/10)
Length of Visible Light 10h 42m
Length of Day
9h 44m
Waxing Gibbous, 75% of the Moon is Illuminated
Jan 10
Waxing Gibbous
Jan 15
Full
Jan 23
Last Quarter
Jan 30
New
Feb 6
First Quarter

Hourly Weather History & Observations

Time (CST) Temp. Windchill Dew Point Humidity Pressure Visibility Wind Dir Wind Speed Gust Speed Precip Events Conditions
12:15 AM 33.8 °F - 28.4 °F 81% 30.21 in 10.0 mi Calm Calm - N/A   Overcast
12:35 AM 33.8 °F - 28.4 °F 81% 30.21 in 10.0 mi Calm Calm - N/A   Overcast
12:55 AM 33.8 °F 30.8 °F 28.4 °F 81% 30.21 in 10.0 mi ESE 3.5 mph - N/A   Overcast
1:15 AM 33.8 °F - 28.4 °F 81% 30.21 in 10.0 mi Calm Calm - N/A   Overcast
1:35 AM 33.8 °F - 28.4 °F 81% 30.20 in 10.0 mi Calm Calm - N/A   Overcast
1:55 AM 33.8 °F - 30.2 °F 87% 30.20 in 10.0 mi Calm Calm - N/A   Overcast
2:15 AM 33.8 °F 30.8 °F 28.4 °F 81% 30.20 in 10.0 mi East 3.5 mph - N/A   Overcast
2:35 AM 33.8 °F - 30.2 °F 87% 30.20 in 10.0 mi Calm Calm - N/A   Overcast
2:55 AM 33.8 °F 29.6 °F 30.2 °F 87% 30.19 in 10.0 mi East 4.6 mph - N/A   Overcast
3:15 AM 33.8 °F 30.8 °F 30.2 °F 87% 30.19 in 10.0 mi East 3.5 mph - N/A   Overcast
3:35 AM 33.8 °F - 30.2 °F 87% 30.18 in 10.0 mi Calm Calm - N/A   Overcast
3:55 AM 33.8 °F 30.8 °F 30.2 °F 87% 30.18 in 10.0 mi ESE 3.5 mph - N/A   Overcast
4:15 AM 35.6 °F 32.8 °F 30.2 °F 81% 30.17 in 10.0 mi SE 3.5 mph - N/A   Overcast
4:35 AM 35.6 °F 32.8 °F 30.2 °F 81% 30.17 in 10.0 mi ESE 3.5 mph - N/A   Overcast
4:55 AM 35.6 °F 32.8 °F 30.2 °F 81% 30.16 in 10.0 mi ESE 3.5 mph - N/A   Overcast
5:15 AM 35.6 °F 31.7 °F 30.2 °F 81% 30.15 in 10.0 mi ESE 4.6 mph - N/A   Overcast
5:35 AM 35.6 °F 32.8 °F 30.2 °F 81% 30.14 in 10.0 mi ESE 3.5 mph - N/A   Overcast
5:55 AM 35.6 °F - 32.0 °F 87% 30.14 in 10.0 mi Calm Calm - N/A   Overcast
6:15 AM 37.4 °F 34.9 °F 32.0 °F 81% 30.14 in 10.0 mi SE 3.5 mph - N/A   Overcast
6:35 AM 35.6 °F 31.7 °F 32.0 °F 87% 30.13 in 10.0 mi East 4.6 mph - N/A   Overcast
6:55 AM 37.4 °F 32.1 °F 33.8 °F 87% 30.12 in 10.0 mi East 6.9 mph - N/A   Overcast
7:15 AM 39.2 °F 35.9 °F 35.6 °F 87% 30.12 in 10.0 mi SSE 4.6 mph - N/A   Overcast
7:35 AM 39.2 °F 35.0 °F 35.6 °F 87% 30.12 in 10.0 mi SSE 5.8 mph - N/A   Overcast
7:55 AM 39.2 °F 35.0 °F 35.6 °F 87% 30.12 in 10.0 mi SSE 5.8 mph - N/A   Overcast
8:15 AM 39.2 °F 35.0 °F 37.4 °F 93% 30.12 in 10.0 mi SE 5.8 mph - N/A   Overcast
8:35 AM 41.0 °F 38.0 °F 35.6 °F 81% 30.12 in 9.0 mi SE 4.6 mph - N/A   Overcast
8:55 AM 41.0 °F 37.1 °F 37.4 °F 87% 30.12 in 9.0 mi SE 5.8 mph - N/A   Overcast
9:15 AM 42.8 °F 38.0 °F 37.4 °F 81% 30.11 in 8.0 mi SSE 8.1 mph - N/A   Overcast
9:35 AM 42.8 °F 38.6 °F 37.4 °F 81% 30.10 in 8.0 mi SE 6.9 mph - N/A   Overcast
9:55 AM 42.8 °F 37.0 °F 37.4 °F 81% 30.10 in 7.0 mi SSE 10.4 mph - N/A   Overcast
10:15 AM 42.8 °F 38.6 °F 39.2 °F 87% 30.10 in 7.0 mi SSE 6.9 mph - N/A   Overcast
10:35 AM 44.6 °F 39.2 °F 39.2 °F 81% 30.08 in 7.0 mi SSE 10.4 mph - N/A   Overcast
10:55 AM 44.6 °F 39.7 °F 41.0 °F 87% 30.06 in 7.0 mi SSE 9.2 mph - N/A   Overcast
11:15 AM 44.6 °F 38.8 °F 41.0 °F 87% 30.05 in 7.0 mi South 11.5 mph - N/A   Overcast
11:35 AM 44.6 °F 40.7 °F 42.8 °F 93% 30.01 in 7.0 mi ESE 6.9 mph - N/A   Overcast
11:55 AM 46.4 °F 41.1 °F 41.0 °F 81% 30.00 in 8.0 mi SSE 11.5 mph - N/A   Overcast
12:15 PM 46.4 °F 42.9 °F 42.8 °F 87% 29.98 in 8.0 mi SE 6.9 mph - N/A   Overcast
12:35 PM 46.4 °F 41.5 °F 42.8 °F 87% 29.96 in 8.0 mi SE 10.4 mph - N/A   Overcast
12:55 PM 46.4 °F 41.1 °F 42.8 °F 87% 29.94 in 10.0 mi SE 11.5 mph - N/A   Overcast
1:15 PM 46.4 °F 41.5 °F 42.8 °F 87% 29.94 in 10.0 mi SE 10.4 mph - N/A   Overcast
1:35 PM 46.4 °F 41.9 °F 42.8 °F 87% 29.94 in 9.0 mi SSE 9.2 mph - N/A   Overcast
1:55 PM 46.4 °F 42.4 °F 42.8 °F 87% 29.92 in 6.0 mi SE 8.1 mph - 0.01 in   Mostly Cloudy
2:15 PM 46.4 °F 42.4 °F 42.8 °F 87% 29.92 in 7.0 mi SE 8.1 mph - 0.01 in   Overcast
2:35 PM 46.4 °F 43.5 °F 42.8 °F 87% 29.91 in 7.0 mi SE 5.8 mph - 0.01 in   Overcast
2:55 PM 44.6 °F 40.7 °F 42.8 °F 93% 29.91 in 8.0 mi SSE 6.9 mph - 0.01 in   Overcast
3:15 PM 46.4 °F 42.9 °F 42.8 °F 87% 29.89 in 8.0 mi ESE 6.9 mph - N/A   Overcast
3:35 PM 46.4 °F 44.3 °F 42.8 °F 87% 29.89 in 9.0 mi SE 4.6 mph - N/A   Overcast
3:55 PM 44.6 °F 39.7 °F 42.8 °F 93% 29.91 in 9.0 mi South 9.2 mph - N/A   Overcast
4:15 PM 46.4 °F 41.5 °F 42.8 °F 87% 29.90 in 8.0 mi South 10.4 mph - N/A   Overcast
4:35 PM 46.4 °F 41.9 °F 42.8 °F 87% 29.88 in 8.0 mi SSE 9.2 mph - N/A   Overcast
4:55 PM 46.4 °F 42.4 °F 42.8 °F 87% 29.86 in 9.0 mi SE 8.1 mph - N/A   Overcast
5:15 PM 46.4 °F 42.4 °F 42.8 °F 87% 29.83 in 10.0 mi SE 8.1 mph - N/A   Mostly Cloudy
5:35 PM 44.6 °F 39.7 °F 41.0 °F 87% 29.83 in 10.0 mi SE 9.2 mph - N/A   Mostly Cloudy
5:55 PM 44.6 °F 39.7 °F 42.8 °F 93% 29.80 in 10.0 mi SE 9.2 mph - N/A   Mostly Cloudy
6:15 PM 46.4 °F 41.5 °F 42.8 °F 87% 29.77 in 10.0 mi SE 10.4 mph - N/A   Overcast
6:35 PM 46.4 °F 42.4 °F 42.8 °F 87% 29.78 in 10.0 mi SSE 8.1 mph - N/A   Overcast
6:55 PM 44.6 °F 40.7 °F 42.8 °F 93% 29.77 in 10.0 mi SSE 6.9 mph - 0.01 in   Overcast
7:15 PM 46.4 °F 42.9 °F 42.8 °F 87% 29.76 in 8.0 mi SE 6.9 mph - 0.03 in   Overcast
7:35 PM 46.4 °F 42.9 °F 42.8 °F 87% 29.76 in 7.0 mi SSE 6.9 mph - 0.07 in   Overcast
7:55 PM 46.4 °F 41.1 °F 42.8 °F 87% 29.73 in 8.0 mi SE 11.5 mph - 0.13 in   Overcast
8:15 PM 46.4 °F 40.7 °F 42.8 °F 87% 29.71 in 8.0 mi SSE 12.7 mph - 0.06 in   Overcast
8:35 PM 46.4 °F 41.9 °F 44.6 °F 93% 29.73 in 8.0 mi South 9.2 mph - 0.14 in   Mostly Cloudy
8:55 PM 46.4 °F 41.5 °F 44.6 °F 93% 29.73 in 9.0 mi South 10.4 mph - 0.21 in   Overcast
9:15 PM 46.4 °F 40.4 °F 44.6 °F 93% 29.77 in 5.0 mi SW 13.8 mph - 0.05 in   Overcast
9:35 PM 46.4 °F 42.4 °F 44.6 °F 93% 29.75 in 5.0 mi SSW 8.1 mph - 0.07 in   Overcast
9:55 PM 46.4 °F 42.9 °F 42.8 °F 87% 29.73 in 4.0 mi South 6.9 mph - 0.07 in   Overcast
10:15 PM 44.6 °F 41.4 °F 42.8 °F 93% 29.73 in 1.0 mi South 5.8 mph - 0.01 in   Overcast
10:35 PM 46.4 °F 42.4 °F 42.8 °F 87% 29.69 in 8.0 mi South 8.1 mph - 0.05 in   Overcast
10:55 PM 46.4 °F 40.7 °F 44.6 °F 93% 29.68 in 10.0 mi South 12.7 mph - 0.09 in   Overcast
11:15 PM 48.2 °F - 44.6 °F 87% 29.65 in 10.0 mi South 13.8 mph - 0.05 in   Overcast
11:35 PM 48.2 °F - 46.4 °F 93% 29.63 in 10.0 mi South 18.4 mph 24.2 mph 0.06 in   Overcast
11:55 PM 48.2 °F - 46.4 °F 93% 29.63 in 10.0 mi South 15.0 mph 21.9 mph 0.06 in   Overcast